FW2861 Weather Reports


time (UTC)temp
C
wind
direction
speed
KPH
gust
KPH
rain 1hr
cm
rain 24hr
cm
rain mn
cm
humidity
%
barometer
mb
20240613065306 16 270 1.6 6.4 0.00 0.00 0.00 87 1011.9
20240613064807 16 241 4.8 4.8 0.00 0.00 0.00 87 1012.1
20240613064306 16 173 0.0 4.8 0.00 0.00 0.00 86 1011.8
20240613063806 16 57 3.2 4.8 0.00 0.00 0.00 85 1011.9
20240613063308 17 186 3.2 6.4 0.00 0.00 0.00 84 1011.7
20240613062806 17 276 0.0 6.4 0.00 0.00 0.00 82 1012.2
20240613062530 17 66 0.0 4.8 0.00 0.00 0.00 80 1012.1
20240613061806 17 151 0.0 4.8 0.00 0.00 0.00 80 1012.1
20240613061306 17 85 0.0 6.4 0.00 0.00 0.00 80 1012.1
20240613060807 17 71 3.2 6.4 0.00 0.00 0.00 80 1012.0
20240613060306 17 180 0.0 6.4 0.00 0.00 0.00 81 1012.2
20240613055807 17 279 0.0 8.0 0.00 0.00 0.00 81 1012.3
20240613055530 17 188 0.0 8.0 0.00 0.00 0.00 81 1012.3
20240613054806 17 203 4.8 8.0 0.00 0.00 0.00 81 1012.1
20240613054306 17 60 0.0 8.0 0.00 0.00 0.00 82 1012.2
20240613053806 18 215 4.8 8.0 0.00 0.00 0.00 82 1012.1
20240613053307 18 114 0.0 9.7 0.00 0.00 0.00 79 1012.2
20240613052806 18 243 3.2 9.7 0.00 0.00 0.00 77 1012.1
20240613052530 18 154 3.2 6.4 0.00 0.00 0.00 76 1012.2
20240613052030 18 172 0.0 6.4 0.00 0.00 0.00 76 1012.1
20240613051308 18 74 1.6 6.4 0.00 0.00 0.00 76 1012.2
20240613050808 18 28 0.0 9.7 0.00 0.00 0.00 76 1012.2
20240613050307 18 117 3.2 9.7 0.00 0.00 0.00 76 1012.3
20240613045806 18 311 0.0 6.4 0.00 0.00 0.00 76 1012.2
20240613045301 18 236 0.0 6.4 0.00 0.00 0.00 76 1012.3
20240613044804 18 152 0.0 4.8 0.00 0.00 0.00 76 1012.5
20240613044529 18 81 0.0 9.7 0.00 0.00 0.00 76 1012.3
20240613043801 18 114 0.0 12.9 0.00 0.00 0.00 78 1012.2
20240613043302 18 195 3.2 12.9 0.00 0.00 0.00 78 1012.0
20240613042804 19 240 4.8 9.7 0.00 0.00 0.00 75 1012.3
20240613042306 19 235 6.4 8.0 0.00 0.00 0.00 77 1012.1
20240613041802 19 216 0.0 12.9 0.00 0.00 0.00 77 1012.1
20240613041523 19 241 0.0 12.9 0.00 0.00 0.00 78 1012.2
20240613040807 19 204 3.2 8.0 0.00 0.00 0.00 78 1012.2
20240613040520 19 232 6.4 8.0 0.00 0.00 0.00 79 1012.5
20240613035802 18 233 4.8 8.0 0.00 0.00 0.00 80 1012.2
20240613035301 18 240 0.0 6.4 0.00 0.00 0.00 81 1012.2
20240613034801 18 240 4.8 4.8 0.00 0.00 0.00 81 1012.1
20240613034301 18 270 0.0 11.3 0.00 0.00 0.00 81 1011.9
20240613033802 18 185 0.0 11.3 0.00 0.00 0.00 81 1012.1
20240613033301 18 192 4.8 12.9 0.00 0.00 0.00 81 1012.1
20240613032804 18 210 3.2 14.5 0.00 0.00 0.00 81 1011.9
20240613032305 19 264 4.8 14.5 0.00 0.00 0.00 80 1012.1
20240613031803 19 233 6.4 11.3 0.00 0.00 0.00 80 1011.9
20240613031301 19 249 3.2 9.7 0.00 0.00 0.00 80 1011.9
20240613030801 18 243 3.2 11.3 0.00 0.00 0.00 80 1011.9
20240613030301 18 255 4.8 11.3 0.00 0.00 0.00 80 1011.8
20240613025804 18 266 4.8 8.0 0.00 0.00 0.00 80 1011.6
20240613025302 18 233 3.2 8.0 0.00 0.00 0.00 80 1011.9
20240613024803 18 132 0.0 8.0 0.00 0.00 0.00 80 1011.9
20240613024301 19 194 0.0 4.8 0.00 0.00 0.00 80 1011.6
20240613023803 19 147 3.2 4.8 0.00 0.00 0.00 80 1011.7
20240613023301 19 229 0.0 6.4 0.00 0.00 0.00 79 1011.7
20240613022806 19 221 0.0 6.4 0.00 0.00 0.00 79 1011.7
20240613022305 19 173 0.0 4.8 0.00 0.00 0.00 79 1011.9
20240613021805 19 354 3.2 6.4 0.00 0.00 0.00 78 1011.6
20240613021302 19 99 0.0 6.4 0.00 0.00 0.00 77 1011.5
20240613020804 20 180 0.0 4.8 0.00 0.00 0.00 76 1011.5
20240613020301 20 183 4.8 11.3 0.00 0.00 0.00 76 1011.8
20240613015804 20 195 0.0 11.3 0.00 0.00 0.00 75 1011.4
20240613015305 20 187 0.0 9.7 0.00 0.00 0.00 75 1011.7
20240613014803 20 105 3.2 8.0 0.00 0.00 0.00 75 1011.5
20240613014302 20 96 0.0 9.7 0.00 0.00 0.00 74 1011.4
20240613013801 20 66 0.0 9.7 0.00 0.00 0.00 74 1011.4
20240613013301 20 60 3.2 9.7 0.00 0.00 0.00 74 1011.6
20240613012807 20 234 3.2 8.0 0.00 0.00 0.00 74 1011.2
20240613012301 20 180 3.2 9.7 0.00 0.00 0.00 74 1011.4
20240613012027 20 299 0.0 9.7 0.00 0.00 0.00 74 1011.2
20240613011303 20 143 0.0 8.0 0.00 0.00 0.00 74 1011.2
20240613010802 20 80 3.2 6.4 0.00 0.00 0.00 74 1011.0
20240613010524 20 180 0.0 6.4 0.00 0.00 0.00 74 1011.0
20240613010244 20 90 0.0 8.0 0.00 0.00 0.00 74 1010.9
20240613005301 21 206 3.2 8.0 0.00 0.00 0.00 73 1010.8
20240613004804 21 229 0.0 8.0 0.00 0.00 0.00 73 1010.6
20240613004301 21 63 0.0 6.4 0.00 0.00 0.00 72 1010.8
20240613003805 21 83 3.2 6.4 0.00 0.00 0.00 72 1010.7
20240613003302 21 109 3.2 6.4 0.00 0.00 0.00 72 1011.1
20240613002803 21 168 0.0 8.0 0.00 0.00 0.00 71 1010.8
20240613002747 21 90 0.0 8.0 0.00 0.00 0.00 70 1010.7
20240613001804 21 81 0.0 9.7 0.00 0.00 0.00 70 1010.6
20240613001303 21 90 0.0 11.3 0.00 0.00 0.00 69 1010.6
20240613000804 21 74 0.0 11.3 0.00 0.00 0.00 69 1010.5
20240613000303 22 203 1.6 9.7 0.00 0.00 0.00 68 1010.5
20240612235805 22 84 0.0 9.7 0.00 0.00 0.00 68 1010.5
20240612235301 22 150 0.0 12.9 0.00 0.00 0.00 68 1010.7
20240612234803 22 85 0.0 12.9 0.00 0.00 0.00 67 1010.6
20240612234301 22 188 0.0 11.3 0.00 0.00 0.00 67 1010.6
20240612233806 22 214 3.2 11.3 0.00 0.00 0.00 66 1010.7
20240612233301 22 180 4.8 9.7 0.00 0.00 0.00 66 1010.7
20240612232803 22 101 3.2 17.7 0.00 0.00 0.00 66 1010.8
20240612232301 22 227 4.8 17.7 0.00 0.00 0.00 66 1010.6
20240612232245 22 294 1.6 9.7 0.00 0.00 0.00 66 1010.4
20240612231302 22 33 0.0 11.3 0.00 0.00 0.00 65 1010.7
20240612230803 23 176 3.2 11.3 0.00 0.00 0.00 65 1010.3
20240612230302 23 257 3.2 11.3 0.00 0.00 0.00 65 1010.3
20240612225801 23 84 11.3 11.3 0.00 0.00 0.00 65 1010.6
20240612225301 23 36 4.8 11.3 0.00 0.00 0.00 65 1010.3
20240612224803 23 60 0.0 12.9 0.00 0.00 0.00 64 1010.3
20240612224301 23 98 4.8 12.9 0.00 0.00 0.00 64 1010.5
20240612223801 23 100 0.0 9.7 0.00 0.00 0.00 64 1010.6
20240612223301 23 103 0.0 9.7 0.00 0.00 0.00 63 1010.4
20240612222807 23 107 4.8 9.7 0.00 0.00 0.00 63 1010.5
20240612222306 23 39 9.7 9.7 0.00 0.00 0.00 62 1010.5
20240612221803 23 84 3.2 9.7 0.00 0.00 0.00 63 1010.4
20240612221301 23 279 0.0 11.3 0.00 0.00 0.00 64 1010.3
20240612221244 23 103 6.4 19.3 0.00 0.00 0.00 63 1010.5
20240612220303 23 90 4.8 19.3 0.00 0.00 0.00 62 1010.2
20240612215805 23 108 12.9 16.1 0.00 0.00 0.00 61 1010.4
20240612215528 24 216 4.8 14.5 0.00 0.00 0.00 62 1010.3
20240612214804 24 55 3.2 14.5 0.00 0.00 0.00 61 1010.4
20240612214302 24 155 6.4 12.9 0.00 0.00 0.00 60 1010.5
20240612213804 24 264 3.2 11.3 0.00 0.00 0.00 62 1010.2
20240612213302 23 169 0.0 11.3 0.00 0.00 0.00 62 1010.3
20240612212803 23 228 3.2 11.3 0.00 0.00 0.00 62 1010.6
20240612212520 24 240 0.0 11.3 0.00 0.00 0.00 62 1010.6
20240612211801 24 200 0.0 9.7 0.00 0.00 0.00 61 1010.3
20240612211749 24 254 3.2 9.7 0.00 0.00 0.00 61 1010.5
20240612210803 23 71 0.0 16.1 0.00 0.00 0.00 61 1010.4
20240612210301 23 90 4.8 16.1 0.00 0.00 0.00 62 1010.5
20240612205806 23 248 4.8 16.1 0.00 0.00 0.00 62 1010.6
20240612205306 24 99 3.2 17.7 0.00 0.00 0.00 62 1010.7
20240612204804 24 107 0.0 17.7 0.00 0.00 0.00 61 1010.7
20240612204521 24 330 3.2 14.5 0.00 0.00 0.00 61 1010.6
20240612203803 24 142 9.7 14.5 0.00 0.00 0.00 62 1010.7
20240612203519 24 197 8.0 14.5 0.00 0.00 0.00 62 1010.5
20240612202803 25 190 3.2 14.5 0.00 0.00 0.00 60 1010.7
20240612202520 25 16 3.2 16.1 0.00 0.00 0.00 61 1010.7
20240612201801 25 180 3.2 16.1 0.00 0.00 0.00 60 1010.9
20240612201301 25 126 14.5 14.5 0.00 0.00 0.00 60 1010.8
20240612200805 25 229 3.2 12.9 0.00 0.00 0.00 62 1010.8
20240612200534 25 87 0.0 17.7 0.00 0.00 0.00 61 1010.6
20240612195806 24 158 0.0 17.7 0.00 0.00 0.00 63 1011.1
20240612195305 24 172 0.0 16.1 0.00 0.00 0.00 64 1011.0
20240612194805 24 104 8.0 16.1 0.00 0.00 0.00 63 1011.1
20240612194301 25 60 0.0 11.3 0.00 0.00 0.00 63 1010.9
20240612194026 25 192 4.8 14.5 0.00 0.00 0.00 61 1010.9
20240612193302 25 68 4.8 20.9 0.00 0.00 0.00 63 1011.0
20240612192804 24 98 9.7 20.9 0.00 0.00 0.00 64 1011.3
20240612192306 24 95 6.4 20.9 0.00 0.00 0.00 63 1010.8
20240612191803 25 34 8.0 20.9 0.00 0.00 0.00 62 1011.1
20240612191301 25 92 9.7 20.9 0.00 0.00 0.00 62 1011.1
20240612190801 24 66 1.6 20.9 0.00 0.00 0.00 65 1011.3
20240612190305 25 66 3.2 16.1 0.00 0.00 0.00 62 1011.1
20240612185801 24 117 3.2 16.1 0.00 0.00 0.00 63 1011.4
20240612185301 25 108 6.4 11.3 0.00 0.00 0.00 63 1011.2
20240612184801 24 17 4.8 11.3 0.00 0.00 0.00 62 1011.1
20240612184301 25 90 6.4 12.9 0.00 0.00 0.00 61 1011.3
20240612183801 24 6 3.2 12.9 0.00 0.00 0.00 64 1011.1
20240612183302 24 26 3.2 6.4 0.00 0.00 0.00 66 1011.1
20240612182801 23 75 1.6 9.7 0.00 0.00 0.00 66 1011.4
20240612182508 23 95 3.2 9.7 0.00 0.00 0.00 66 1011.4
20240612182356 23 15 1.6 9.7 0.00 0.00 0.00 67 1011.3
20240612181306 23 334 0.0 6.4 0.00 0.00 0.00 67 1011.4
20240612180801 23 0 3.2 9.7 0.00 0.00 0.00 66 1011.5
20240612180304 23 127 3.2 9.7 0.00 0.00 0.00 64 1011.4
20240612175802 23 117 3.2 9.7 0.00 0.00 0.00 65 1011.8
20240612175301 23 93 4.8 8.0 0.00 0.00 0.00 64 1011.6
20240612174803 23 75 0.0 12.9 0.00 0.00 0.00 66 1011.9
20240612174524 23 352 0.0 12.9 0.00 0.00 0.00 64 1011.7
20240612173801 23 111 4.8 11.3 0.00 0.00 0.00 64 1011.7
20240612173301 23 335 11.3 11.3 0.00 0.00 0.00 64 1011.7
20240612172801 23 105 3.2 11.3 0.00 0.00 0.00 65 1011.6
20240612172305 23 23 0.0 11.3 0.00 0.00 0.00 64 1011.9
20240612171802 23 109 4.8 11.3 0.00 0.00 0.00 64 1011.9
20240612171301 23 22 3.2 8.0 0.00 0.00 0.00 62 1012.1
20240612170801 23 39 4.8 8.0 0.00 0.00 0.00 64 1012.0
20240612170302 23 29 0.0 8.0 0.00 0.00 0.00 64 1012.0
20240612170030 22 69 3.2 8.0 0.00 0.00 0.00 65 1012.0
20240612165305 22 135 4.8 9.7 0.00 0.00 0.00 64 1011.9
20240612165025 23 4 3.2 9.7 0.00 0.00 0.00 65 1012.0
20240612164748 23 115 0.0 11.3 0.00 0.00 0.00 64 1012.0
20240612163803 23 28 6.4 11.3 0.00 0.00 0.00 64 1011.8
20240612163301 23 127 4.8 11.3 0.00 0.00 0.00 63 1011.9
20240612162801 22 111 3.2 11.3 0.00 0.00 0.00 64 1012.1
20240612162524 23 117 3.2 9.7 0.00 0.00 0.00 64 1012.2
20240612162023 23 10 6.4 9.7 0.00 0.00 0.00 64 1011.9
20240612161756 22 332 9.7 9.7 0.00 0.00 0.00 64 1011.6
20240612160802 22 21 4.8 9.7 0.00 0.00 0.00 65 1012.0
20240612160302 23 356 3.2 8.0 0.00 0.00 0.00 65 1011.9
20240612155801 23 0 0.0 11.3 0.00 0.00 0.00 67 1012.0
20240612155305 23 345 3.2 11.3 0.00 0.00 0.00 66 1012.1
20240612154801 22 0 4.8 9.7 0.00 0.00 0.00 66 1011.9
20240612154743 23 11 6.4 11.3 0.00 0.00 0.00 64 1012.1
20240612153801 23 7 6.4 11.3 0.00 0.00 0.00 64 1012.0
20240612153301 23 18 4.8 11.3 0.00 0.00 0.00 62 1012.0
20240612152801 23 0 3.2 11.3 0.00 0.00 0.00 64 1011.9
20240612152301 23 13 9.7 11.3 0.00 0.00 0.00 64 1012.2
20240612152021 23 0 1.6 9.7 0.00 0.00 0.00 67 1012.1
20240612151301 22 30 4.8 9.7 0.00 0.00 0.00 68 1011.9
20240612150801 22 117 0.0 11.3 0.00 0.00 0.00 67 1012.0
20240612150301 22 357 4.8 16.1 0.00 0.00 0.00 67 1011.9
20240612145803 23 23 3.2 16.1 0.00 0.00 0.00 68 1011.8
20240612145305 23 0 1.6 12.9 0.00 0.00 0.00 66 1011.9
20240612144803 23 23 8.0 11.3 0.00 0.00 0.00 65 1011.7
20240612144301 23 348 3.2 14.5 0.00 0.00 0.00 67 1011.5
20240612143801 23 340 3.2 14.5 0.00 0.00 0.00 68 1011.4
20240612143303 23 26 6.4 12.9 0.00 0.00 0.00 65 1011.2
20240612142802 23 4 8.0 12.9 0.00 0.00 0.00 63 1011.2
20240612142305 23 35 6.4 12.9 0.00 0.00 0.00 65 1011.2
20240612142017 23 28 0.0 14.5 0.00 0.00 0.00 65 1011.3
20240612141301 23 75 1.6 14.5 0.00 0.00 0.00 67 1011.1
20240612140801 22 15 3.2 11.3 0.00 0.00 0.00 67 1011.3
20240612140303 23 23 4.8 11.3 0.00 0.00 0.00 68 1011.1
20240612135802 23 43 6.4 11.3 0.00 0.00 0.00 68 1011.3
20240612135305 23 10 0.0 12.9 0.00 0.00 0.00 69 1011.2
20240612134802 22 69 0.0 12.9 0.00 0.00 0.00 70 1011.2
20240612134301 23 75 4.8 9.7 0.00 0.00 0.00 68 1011.2
20240612133802 23 60 0.0 8.0 0.00 0.00 0.00 68 1011.1
20240612133524 23 63 3.2 9.7 0.00 0.00 0.00 69 1011.2
20240612132801 22 7 4.8 9.7 0.00 0.00 0.00 69 1011.0
20240612132301 22 17 9.7 9.7 0.00 0.00 0.00 67 1011.2
20240612131801 23 14 1.6 8.0 0.00 0.00 0.00 68 1011.3
20240612131301 22 4 8.0 9.7 0.00 0.00 0.00 70 1011.2
20240612130802 22 47 0.0 9.7 0.00 0.00 0.00 70 1011.3
20240612130302 22 16 3.2 8.0 0.00 0.00 0.00 68 1011.4
20240612125801 22 0 1.6 9.7 0.00 0.00 0.00 70 1011.3
20240612125301 21 12 4.8 9.7 0.00 0.00 0.00 72 1011.3
20240612124801 21 10 3.2 9.7 0.00 0.00 0.00 72 1011.2
20240612124302 22 30 4.8 9.7 0.00 0.00 0.00 70 1011.3
20240612123801 22 3 4.8 9.7 0.00 0.00 0.00 71 1011.1
20240612123301 21 8 3.2 9.7 0.00 0.00 0.00 73 1011.3
20240612122801 21 10 4.8 8.0 0.00 0.00 0.00 72 1011.3
20240612122301 21 15 4.8 6.4 0.00 0.00 0.00 71 1011.4
20240612121801 21 235 3.2 6.4 0.00 0.00 0.00 71 1011.4
20240612121301 21 254 0.0 4.8 0.00 0.00 0.00 71 1011.6
20240612121020 22 139 0.0 6.4 0.00 0.00 0.00 73 1011.4
20240612120301 21 210 0.0 6.4 0.00 0.00 0.00 74 1011.6
20240612120021 21 253 0.0 4.8 0.00 0.00 0.00 75 1011.6
20240612115305 21 90 0.0 6.4 0.00 0.00 0.00 73 1011.6
20240612114801 21 75 1.6 6.4 0.00 0.00 0.00 76 1011.7
20240612114301 20 99 0.0 6.4 0.00 0.00 0.00 76 1011.4
20240612113803 21 165 0.0 4.8 0.00 0.00 0.00 76 1011.5
20240612113302 20 166 0.0 4.8 0.00 0.00 0.00 78 1011.7
20240612112802 19 206 3.2 4.8 0.00 0.00 0.00 80 1011.6
20240612112301 19 173 0.0 4.8 0.00 0.00 0.00 80 1011.7
20240612111802 19 180 0.0 3.2 0.00 0.00 0.00 82 1011.7
20240612111302 18 90 0.0 4.8 0.00 0.00 0.00 84 1011.7
20240612110801 18 254 0.0 4.8 0.00 0.00 0.00 84 1011.8
20240612110301 18 166 0.0 4.8 0.00 0.00 0.00 86 1011.9
20240612105802 17 229 0.0 4.8 0.00 0.00 0.00 87 1011.8
20240612105524 17 180 0.0 4.8 0.00 0.00 0.00 88 1011.6
20240612105019 17 77 0.0 4.8 0.00 0.00 0.00 89 1012.0
20240612104301 17 99 0.0 3.2 0.00 0.00 0.00 90 1011.8
20240612103802 17 246 1.6 4.8 0.00 0.00 0.00 91 1011.9
20240612103526 16 98 0.0 4.8 0.00 0.00 0.00 92 1011.9
20240612102802 16 106 0.0 4.8 0.00 0.00 0.00 93 1012.0
20240612102306 16 84 3.2 4.8 0.00 0.00 0.00 93 1012.1
20240612102018 16 216 4.8 4.8 0.00 0.00 0.00 93 1011.9
20240612101301 16 82 0.0 4.8 0.00 0.00 0.00 93 1012.0
20240612100801 16 90 0.0 4.8 0.00 0.00 0.00 93 1012.1
20240612100302 16 270 0.0 3.2 0.00 0.00 0.00 93 1011.9
20240612100019 16 114 0.0 3.2 0.00 0.00 0.00 93 1012.0
20240612095521 16 180 0.0 3.2 0.00 0.00 0.00 92 1012.0
20240612094801 16 29 0.0 3.2 0.00 0.00 0.00 92 1012.3
20240612094301 16 175 3.2 6.4 0.00 0.00 0.00 93 1012.3
20240612093801 16 128 0.0 6.4 0.00 0.00 0.00 93 1012.0
20240612093301 16 29 0.0 3.2 0.00 0.00 0.00 93 1012.1
20240612092801 16 90 0.0 3.2 0.00 0.00 0.00 93 1012.0
20240612092301 16 40 3.2 3.2 0.00 0.00 0.00 92 1011.9
20240612091802 16 111 0.0 3.2 0.00 0.00 0.00 92 1012.2
20240612091301 16 337 0.0 3.2 0.00 0.00 0.00 92 1012.3
20240612091021 16 180 0.0 3.2 0.00 0.00 0.00 92 1012.0
20240612090301 16 192 3.2 6.4 0.00 0.00 0.00 92 1012.0
20240612085803 16 184 0.0 6.4 0.00 0.00 0.00 92 1012.0
20240612085305 16 264 0.0 6.4 0.00 0.00 0.00 92 1012.0
20240612085248 16 234 3.2 4.8 0.00 0.00 0.00 92 1011.9
20240612084301 16 246 1.6 4.8 0.00 0.00 0.00 92 1011.9
20240612083801 16 180 0.0 4.8 0.00 0.00 0.00 92 1012.0
20240612083301 16 241 0.0 4.8 0.00 0.00 0.00 92 1011.9
20240612083026 16 279 0.0 4.8 0.00 0.00 0.00 92 1011.9
20240612082305 16 166 0.0 4.8 0.00 0.00 0.00 92 1012.0
20240612081801 16 131 0.0 4.8 0.00 0.00 0.00 91 1011.9
20240612081301 16 121 4.8 4.8 0.00 0.00 0.00 91 1012.1
20240612080802 16 69 0.0 4.8 0.00 0.00 0.00 91 1011.8
20240612080744 16 69 0.0 4.8 0.00 0.00 0.00 91 1011.7
20240612075802 16 102 3.2 4.8 0.00 0.00 0.00 91 1011.8
20240612075301 16 180 0.0 3.2 0.00 0.00 0.00 91 1011.9
20240612074802 16 105 0.0 4.8 0.00 0.00 0.00 91 1011.7
20240612074301 16 160 0.0 3.2 0.00 0.00 0.00 91 1011.7
20240612073801 16 180 0.0 4.8 0.00 0.00 0.00 91 1011.8
20240612073303 16 90 0.0 4.8 0.00 0.00 0.00 91 1011.9
20240612072802 16 90 3.2 3.2 0.00 0.00 0.00 91 1011.6
20240612072301 16 117 0.0 4.8 0.00 0.00 0.00 91 1012.0
20240612071805 16 208 3.2 4.8 0.00 0.00 0.00 91 1012.0
20240612071253 16 82 1.6 4.8 0.00 0.00 0.00 91 1011.9
20240612071241 16 99 0.0 4.8 0.00 0.00 0.00 91 1011.6
20240612070521 16 21 0.0 4.8 0.00 0.00 0.00 91 1011.7
20240612065753 16 66 0.0 6.4 0.00 0.00 0.00 91 1011.7